TimeAKDT,TemperatureF,Dew PointF,Humidity,Sea Level PressureIn,VisibilityMPH,Wind Direction,Wind SpeedMPH,Gust SpeedMPH,PrecipitationIn,Events,Conditions,WindDirDegrees,DateUTC
12:54 AM,44.1,39.0,82,29.37,10.0,WNW,11.5,-,N/A,,Overcast,300,2011-10-11 08:54:00
1:54 AM,44.1,39.0,82,29.36,10.0,WNW,11.5,-,N/A,,Overcast,300,2011-10-11 09:54:00
2:54 AM,46.0,36.0,68,29.36,10.0,NW,6.9,-,N/A,,Overcast,320,2011-10-11 10:54:00
3:54 AM,44.1,37.0,76,29.36,10.0,WNW,9.2,-,N/A,,Overcast,300,2011-10-11 11:54:00
4:54 AM,46.9,34.0,61,29.36,10.0,NNW,9.2,-,N/A,,Overcast,340,2011-10-11 12:54:00
5:54 AM,46.0,34.0,63,29.36,10.0,NW,8.1,-,N/A,,Mostly Cloudy,310,2011-10-11 13:54:00
6:54 AM,46.9,34.0,61,29.37,10.0,NNW,8.1,-,N/A,,Overcast,340,2011-10-11 14:54:00
7:54 AM,45.0,36.0,71,29.38,10.0,NW,6.9,-,N/A,,Overcast,310,2011-10-11 15:54:00
8:54 AM,46.9,34.0,61,29.38,10.0,NW,8.1,-,N/A,,Mostly Cloudy,310,2011-10-11 16:54:00
9:54 AM,46.9,34.0,61,29.39,10.0,NW,10.4,-,N/A,,Mostly Cloudy,320,2011-10-11 17:54:00
10:54 AM,46.9,36.0,66,29.40,10.0,NW,10.4,-,N/A,,Overcast,320,2011-10-11 18:54:00
11:54 AM,48.0,36.0,63,29.41,10.0,NW,11.5,-,N/A,,Clear,310,2011-10-11 19:54:00
12:54 PM,50.0,36.0,59,29.42,10.0,NW,10.4,-,N/A,,Clear,310,2011-10-11 20:54:00
1:54 PM,51.1,36.0,56,29.42,10.0,NW,6.9,-,N/A,,Mostly Cloudy,320,2011-10-11 21:54:00
2:54 PM,51.1,35.1,54,29.43,10.0,NW,6.9,-,N/A,,Scattered Clouds,310,2011-10-11 22:54:00
3:54 PM,51.1,36.0,56,29.44,10.0,WNW,6.9,-,N/A,,Mostly Cloudy,300,2011-10-11 23:54:00
4:54 PM,50.0,36.0,59,29.45,10.0,NW,3.5,-,0.00,Rain,Light Rain,310,2011-10-12 00:54:00
5:54 PM,46.9,39.0,74,29.47,10.0,NNW,6.9,-,0.00,Rain,Light Rain,330,2011-10-12 01:54:00
6:54 PM,45.0,41.0,86,29.49,10.0,NNW,5.8,-,0.01,Rain,Light Rain,330,2011-10-12 02:54:00
7:54 PM,44.1,41.0,89,29.50,10.0,NW,8.1,-,0.02,Rain,Light Rain,320,2011-10-12 03:54:00
8:54 PM,44.1,41.0,89,29.51,9.0,NW,6.9,-,0.05,Rain,Light Rain,320,2011-10-12 04:54:00
9:54 PM,44.1,42.1,93,29.52,9.0,NW,8.1,-,0.03,Rain,Light Rain,310,2011-10-12 05:54:00
10:54 PM,44.1,41.0,89,29.53,9.0,WNW,10.4,-,0.03,Rain,Light Rain,300,2011-10-12 06:54:00
11:54 PM,43.0,39.9,89,29.55,8.0,NW,10.4,-,0.03,Rain,Light Rain,310,2011-10-12 07:54:00